Location: Castrojimeno
(41.3966°N, 3.8473°W)
Time: 15:12:47
(UTC+00:00)

Meteor 1-20 Rocket - Pass Details

Date: 15 May 2026
Orbit: 818 x 890 km, 81.2° (Epoch: 10 June)

Event Time Altitude Azimuth Distance (km) Brightness Sun altitude
Rises 21:30:36 0° 348° (NNW) 3,404 8.4 -19.0°
Reaches altitude 10° 21:33:00 10° 347° (NNW) 2,476 7.6 -19.3°
Maximum altitude 21:38:37 77° 263° (W) 883 4.3 -19.9°
Enters shadow 21:41:34 30° 182° (S) 1,508 5.1 -20.3°
